• In Russia
  • List of Countries
  • For 7 days
  • Water Temperature
  • Satellite Maps
  • Weather Map
  • Weather Widgets
  • user-avatar
    Login

    Hourly Weather Eisenstadt

    Today, 26 May, Sunday

    Time Temperature Precipitation Wind Pressure Humidity
    00:00 +15°C° 0.4 mm 1 mps 721 mmHg 84%
    01:00 +14°C° 0 mm 1 mps 721 mmHg 84%
    02:00 +14°C° 0.7 mm 1 mps 721 mmHg 85%
    03:00 +14°C° 0.7 mm 1 mps 721 mmHg 87%
    04:00 +13°C° 0.7 mm 1 mps 721 mmHg 88%
    05:00 +15°C° 0.1 mm 1 mps 721 mmHg 85%
    06:00 +16°C° 0.1 mm 1 mps 722 mmHg 82%
    07:00 +18°C° 0.1 mm 1 mps 722 mmHg 79%
    08:00 +19°C° 0.2 mm 1 mps 722 mmHg 74%
    09:00 +20°C° 0.2 mm 1 mps 722 mmHg 69%
    10:00 +22°C° 0.2 mm 1 mps 722 mmHg 64%
    11:00 +21°C° 0.3 mm 2 mps 722 mmHg 62%
    12:00 +23°C° 0.3 mm 2 mps 722 mmHg 60%
    13:00 +24°C° 0.3 mm 2 mps 721 mmHg 58%
    14:00 +24°C° 0.1 mm 2 mps 721 mmHg 58%
    15:00 +24°C° 0.1 mm 2 mps 721 mmHg 59%
    16:00 +24°C° 0.1 mm 3 mps 721 mmHg 59%
    17:00 +21°C° 0.2 mm 2 mps 721 mmHg 66%
    18:00 +20°C° 0.2 mm 2 mps 720 mmHg 74%
    19:00 +18°C° 0.2 mm 2 mps 720 mmHg 82%
    20:00 +18°C° 0.2 mm 2 mps 720 mmHg 83%
    21:00 +17°C° 0.2 mm 2 mps 720 mmHg 84%
    22:00 +16°C° 0.2 mm 2 mps 720 mmHg 86%
    23:00 +16°C° 0 mm 1 mps 720 mmHg 86%

    Tomorrow, 27 May, Monday

    Time Temperature Precipitation Wind Pressure Humidity
    00:00 +16°C° 0 mm 1 mps 720 mmHg 86%
    01:00 +16°C° 0 mm 1 mps 720 mmHg 86%
    02:00 +15°C° 0 mm 1 mps 720 mmHg 87%
    03:00 +15°C° 0 mm 1 mps 719 mmHg 88%
    04:00 +15°C° 0 mm 2 mps 719 mmHg 89%
    05:00 +15°C° 0.1 mm 1 mps 719 mmHg 88%
    06:00 +16°C° 0.1 mm 1 mps 719 mmHg 88%
    07:00 +18°C° 0.1 mm 1 mps 720 mmHg 87%
    08:00 +19°C° 0.1 mm 1 mps 720 mmHg 80%
    09:00 +19°C° 0.1 mm 2 mps 720 mmHg 74%
    10:00 +21°C° 0.1 mm 3 mps 719 mmHg 67%
    11:00 +21°C° 0.1 mm 3 mps 719 mmHg 65%
    12:00 +22°C° 0.1 mm 4 mps 719 mmHg 62%
    13:00 +23°C° 0.1 mm 4 mps 719 mmHg 60%
    14:00 +21°C° 0.4 mm 4 mps 719 mmHg 69%
    15:00 +19°C° 0.4 mm 4 mps 718 mmHg 79%
    16:00 +17°C° 0.4 mm 4 mps 718 mmHg 88%
    17:00 +17°C° 0 mm 3 mps 717 mmHg 88%
    18:00 +17°C° 0 mm 3 mps 717 mmHg 89%
    19:00 +17°C° 0 mm 2 mps 717 mmHg 89%
    20:00 +16°C° 0 mm 2 mps 717 mmHg 90%
    21:00 +15°C° 0 mm 2 mps 716 mmHg 92%
    22:00 +15°C° 0 mm 2 mps 716 mmHg 93%
    23:00 +14°C° 0 mm 2 mps 716 mmHg 94%

    Day after tomorrow, 28 May, Tuesday

    Time Temperature Precipitation Wind Pressure Humidity
    00:00 +14°C° 0 mm 2 mps 715 mmHg 94%
    01:00 +13°C° 0 mm 2 mps 715 mmHg 94%
    02:00 +13°C° 0 mm 2 mps 715 mmHg 93%
    03:00 +13°C° 0 mm 1 mps 714 mmHg 93%
    04:00 +13°C° 0 mm 1 mps 714 mmHg 92%
    05:00 +14°C° 0 mm 1 mps 714 mmHg 88%
    06:00 +16°C° 0 mm 2 mps 714 mmHg 83%
    07:00 +18°C° 0 mm 2 mps 714 mmHg 79%
    08:00 +19°C° 0.3 mm 2 mps 714 mmHg 74%
    09:00 +20°C° 0.3 mm 2 mps 714 mmHg 68%
    10:00 +21°C° 0.3 mm 2 mps 714 mmHg 63%
    11:00 +21°C° 1.2 mm 2 mps 713 mmHg 66%
    12:00 +21°C° 1.2 mm 2 mps 713 mmHg 68%
    13:00 +21°C° 1.2 mm 2 mps 713 mmHg 70%
    14:00 +19°C° 2.9 mm 2 mps 713 mmHg 77%
    15:00 +17°C° 2.9 mm 3 mps 713 mmHg 84%
    16:00 +14°C° 2.9 mm 3 mps 713 mmHg 90%
    17:00 +13°C° 0.7 mm 3 mps 713 mmHg 91%
    18:00 +13°C° 0.7 mm 3 mps 714 mmHg 92%
    19:00 +12°C° 0.7 mm 3 mps 714 mmHg 92%
    20:00 +12°C° 0.5 mm 3 mps 715 mmHg 92%
    21:00 +11°C° 0.5 mm 3 mps 715 mmHg 93%
    22:00 +11°C° 0.5 mm 3 mps 715 mmHg 93%
    23:00 +11°C° 0.1 mm 3 mps 716 mmHg 92%

    29 May, Wednesday

    Time Temperature Precipitation Wind Pressure Humidity
    00:00 +11°C° 0.1 mm 3 mps 716 mmHg 91%
    01:00 +11°C° 0.1 mm 3 mps 716 mmHg 90%
    02:00 +11°C° 0.1 mm 3 mps 716 mmHg 90%
    03:00 +10°C° 0.1 mm 3 mps 716 mmHg 90%
    04:00 +10°C° 0.1 mm 3 mps 717 mmHg 90%
    05:00 +10°C° 0.2 mm 3 mps 717 mmHg 89%
    06:00 +11°C° 0.2 mm 3 mps 717 mmHg 89%
    07:00 +11°C° 0.2 mm 3 mps 718 mmHg 89%
    08:00 +11°C° 0.4 mm 3 mps 718 mmHg 88%
    09:00 +12°C° 0.4 mm 4 mps 718 mmHg 87%
    10:00 +12°C° 0.4 mm 4 mps 719 mmHg 87%
    11:00 +13°C° 0.1 mm 4 mps 719 mmHg 82%
    12:00 +13°C° 0.1 mm 4 mps 719 mmHg 78%
    13:00 +14°C° 0.1 mm 4 mps 720 mmHg 74%
    14:00 +14°C° 0.3 mm 3 mps 720 mmHg 76%
    15:00 +14°C° 0.3 mm 3 mps 720 mmHg 79%
    16:00 +13°C° 0.3 mm 3 mps 720 mmHg 82%
    17:00 +13°C° 0.1 mm 3 mps 720 mmHg 83%
    18:00 +12°C° 0.1 mm 3 mps 720 mmHg 85%
    19:00 +11°C° 0.1 mm 3 mps 721 mmHg 86%
    20:00 +11°C° 0.1 mm 3 mps 721 mmHg 86%
    21:00 +11°C° 0.1 mm 3 mps 722 mmHg 86%
    22:00 +10°C° 0.1 mm 3 mps 722 mmHg 86%
    23:00 +10°C° 0.1 mm 3 mps 722 mmHg 87%

    30 May, Thursday

    Time Temperature Precipitation Wind Pressure Humidity
    00:00 +10°C° 0.1 mm 3 mps 723 mmHg 87%
    01:00 +10°C° 0.1 mm 3 mps 723 mmHg 88%
    02:00 +10°C° 0.1 mm 3 mps 723 mmHg 88%
    03:00 +10°C° 0.1 mm 3 mps 723 mmHg 89%
    04:00 +10°C° 0.1 mm 3 mps 723 mmHg 90%
    05:00 +10°C° 0.1 mm 4 mps 724 mmHg 88%
    06:00 +10°C° 0.1 mm 5 mps 724 mmHg 86%
    07:00 +11°C° 0.1 mm 6 mps 725 mmHg 85%
    08:00 +11°C° 0 mm 6 mps 725 mmHg 79%
    09:00 +13°C° 0 mm 6 mps 725 mmHg 74%
    10:00 +14°C° 0 mm 7 mps 726 mmHg 69%
    11:00 +15°C° 0 mm 7 mps 726 mmHg 64%
    12:00 +16°C° 0 mm 7 mps 726 mmHg 60%
    13:00 +17°C° 0 mm 7 mps 726 mmHg 56%
    14:00 +17°C° 0 mm 6 mps 726 mmHg 56%
    15:00 +17°C° 0 mm 6 mps 726 mmHg 56%
    16:00 +17°C° 0 mm 6 mps 726 mmHg 56%
    17:00 +16°C° 0 mm 5 mps 727 mmHg 63%
    18:00 +15°C° 0 mm 4 mps 727 mmHg 69%
    19:00 +13°C° 0 mm 3 mps 727 mmHg 76%
    20:00 +12°C° 0 mm 3 mps 727 mmHg 80%
    21:00 +11°C° 0 mm 3 mps 728 mmHg 84%
    22:00 +10°C° 0 mm 2 mps 728 mmHg 88%
    23:00 +9°C° 0 mm 2 mps 728 mmHg 87%

    31 May, Friday

    Time Temperature Precipitation Wind Pressure Humidity
    00:00 +9°C° 0 mm 2 mps 728 mmHg 86%
    01:00 +9°C° 0 mm 2 mps 729 mmHg 85%
    02:00 +9°C° 0 mm 2 mps 728 mmHg 85%
    03:00 +9°C° 0 mm 2 mps 728 mmHg 84%
    04:00 +8°C° 0 mm 2 mps 728 mmHg 84%
    05:00 +12°C° 0 mm 2 mps 728 mmHg 78%
    06:00 +13°C° 0 mm 3 mps 729 mmHg 71%
    07:00 +16°C° 0 mm 3 mps 729 mmHg 65%
    08:00 +17°C° 0 mm 4 mps 729 mmHg 60%
    09:00 +18°C° 0 mm 4 mps 729 mmHg 55%
    10:00 +20°C° 0 mm 5 mps 729 mmHg 50%
    11:00 +20°C° 0 mm 5 mps 729 mmHg 49%
    12:00 +21°C° 0 mm 5 mps 729 mmHg 48%
    13:00 +22°C° 0 mm 5 mps 729 mmHg 48%
    14:00 +21°C° 0 mm 5 mps 728 mmHg 50%
    15:00 +21°C° 0 mm 5 mps 728 mmHg 53%
    16:00 +20°C° 0 mm 5 mps 728 mmHg 56%
    17:00 +19°C° 0 mm 5 mps 728 mmHg 61%
    18:00 +18°C° 0 mm 4 mps 728 mmHg 67%
    19:00 +16°C° 0 mm 3 mps 728 mmHg 73%
    20:00 +14°C° 0 mm 3 mps 729 mmHg 75%
    21:00 +13°C° 0 mm 3 mps 729 mmHg 77%
    22:00 +12°C° 0 mm 3 mps 729 mmHg 79%
    23:00 +12°C° 0 mm 3 mps 729 mmHg 80%
    Show more